Location: Newark
(44.3248°N, 23.7839°E)
Time: 23:12:39
(UTC+00:00)

NOAA 19 - Visible Passes

Search period start: 24 April 2024 00:00
Search period end: 04 May 2024 00:00
Orbit: 838 x 860 km, 99.1° (Epoch: 24 April)

Date Brightness Start Highest point End Pass type
(mag) Time Alt. Az. Time Alt. Az. Time Alt. Az.
24 Apr 5.3 18:35:02 14° SSE 18:39:38 62° ENE 18:45:01 10° N visible
24 Apr 7.3 20:17:00 10° SW 20:20:42 19° W 20:24:31 10° NW visible
25 Apr 5.5 18:22:32 12° SE 18:27:25 49° ENE 18:32:39 10° N visible
25 Apr 7.0 20:04:30 12° SW 20:08:17 24° W 20:12:41 10° NW visible
26 Apr 5.8 18:10:12 10° SE 18:15:13 39° ENE 18:20:14 10° N visible
26 Apr 6.7 19:52:00 14° SSW 19:55:54 31° W 20:00:42 10° NW visible
27 Apr 6.1 17:58:18 10° SE 18:03:02 31° ENE 18:07:46 10° N visible
27 Apr 6.3 19:39:29 15° SSW 19:43:31 39° W 19:48:38 10° NNW visible
28 Apr 5.9 19:26:59 16° S 19:31:11 50° W 19:36:30 10° NNW visible
29 Apr 5.5 19:14:28 16° S 19:18:52 64° WSW 19:24:18 10° NNW visible
30 Apr 5.2 19:01:58 15° SSE 19:06:34 81° WSW 19:12:03 10° NNW visible
30 Apr 7.8 20:46:47 10° W 20:48:01 11° W 20:49:16 10° WNW visible
01 May 5.2 18:49:27 13° SSE 18:54:17 80° ENE 18:59:45 10° NNW visible
01 May 7.6 20:32:41 10° WSW 20:35:33 14° W 20:38:25 10° WNW visible
02 May 5.3 18:36:56 11° SSE 18:42:01 64° ENE 18:47:25 10° N visible
02 May 7.4 20:19:24 10° SW 20:23:06 19° W 20:26:50 10° NW visible
03 May 5.5 18:24:33 10° SE 18:29:47 50° ENE 18:35:03 10° N visible
03 May 7.1 20:06:24 10° SW 20:10:41 24° W 20:15:01 10° NW visible
